| time (UTC) | temp F | wind direction | speed MPH | gust MPH | rain 1hr in | rain 24hr in | rain mn in | humidity % | barometer mb |
| 20260905010505 | 93 | 125 | 0.0 | 3.0 | 0.00 | 0.00 | 0.00 | 52 | 1011.6 |
| 20260905010012 | 93 | 113 | 0.0 | 6.0 | 0.00 | 0.00 | 0.00 | 51 | 1011.6 |
| 20260905005505 | 94 | 126 | 1.0 | 7.0 | 0.00 | 0.00 | 0.00 | 51 | 1011.5 |
| 20260905004509 | 94 | 123 | 0.0 | 9.0 | 0.00 | 0.00 | 0.00 | 51 | 1011.3 |
| 20260905003505 | 94 | 136 | 0.0 | 7.0 | 0.00 | 0.00 | 0.00 | 51 | 1011.3 |
| 20260905003008 | 95 | 132 | 1.0 | 7.0 | 0.00 | 0.00 | 0.00 | 51 | 1011.2 |
| 20260905002505 | 95 | 106 | 1.0 | 7.0 | 0.00 | 0.00 | 0.00 | 50 | 1011.2 |
| 20260905002004 | 95 | 104 | 0.0 | 4.0 | 0.00 | 0.00 | 0.00 | 48 | 1011.1 |
| 20260905001509 | 96 | 94 | 0.0 | 8.0 | 0.00 | 0.00 | 0.00 | 47 | 1011.1 |
| 20260905001006 | 96 | 128 | 0.0 | 7.0 | 0.00 | 0.00 | 0.00 | 46 | 1011.1 |
| 20260905000505 | 97 | 130 | 1.0 | 7.0 | 0.00 | 0.00 | 0.00 | 46 | 1011.1 |
| 20260905000010 | 97 | 114 | 1.0 | 7.0 | 0.00 | 0.00 | 0.00 | 45 | 1011.0 |
| 20260904235504 | 97 | 126 | 1.0 | 7.0 | 0.00 | 0.00 | 0.00 | 44 | 1011.0 |
| 20260904235004 | 97 | 90 | 0.0 | 9.0 | 0.00 | 0.00 | 0.00 | 43 | 1011.0 |
| 20260904234509 | 98 | 118 | 1.0 | 5.0 | 0.00 | 0.00 | 0.00 | 43 | 1011.0 |
| 20260904233504 | 98 | 78 | 2.0 | 8.0 | 0.00 | 0.00 | 0.00 | 42 | 1011.1 |
| 20260904233009 | 98 | 161 | 1.0 | 8.0 | 0.00 | 0.00 | 0.00 | 42 | 1011.0 |
| 20260904232505 | 98 | 141 | 1.0 | 8.0 | 0.00 | 0.00 | 0.00 | 41 | 1011.0 |
| 20260904231006 | 98 | 173 | 0.0 | 5.0 | 0.00 | 0.00 | 0.00 | 42 | 1011.1 |
| 20260904230011 | 98 | 65 | 3.0 | 9.0 | 0.00 | 0.00 | 0.00 | 42 | 1011.1 |
| 20260904225504 | 98 | 186 | 2.0 | 8.0 | 0.00 | 0.00 | 0.00 | 42 | 1011.2 |
| 20260904225004 | 99 | 142 | 2.0 | 8.0 | 0.00 | 0.00 | 0.00 | 41 | 1011.2 |
| 20260904224508 | 99 | 123 | 1.0 | 8.0 | 0.00 | 0.00 | 0.00 | 40 | 1011.2 |
| 20260904224005 | 99 | 98 | 2.0 | 8.0 | 0.00 | 0.00 | 0.00 | 40 | 1011.3 |
| 20260904223505 | 99 | 132 | 2.0 | 10.0 | 0.00 | 0.00 | 0.00 | 40 | 1011.2 |
| 20260904223009 | 99 | 113 | 2.0 | 10.0 | 0.00 | 0.00 | 0.00 | 40 | 1011.2 |
| 20260904222504 | 100 | 63 | 3.0 | 9.0 | 0.00 | 0.00 | 0.00 | 40 | 1011.2 |
| 20260904222004 | 100 | 122 | 1.0 | 7.0 | 0.00 | 0.00 | 0.00 | 39 | 1011.3 |
| 20260904221005 | 100 | 76 | 1.0 | 4.0 | 0.00 | 0.00 | 0.00 | 39 | 1011.3 |
| 20260904220504 | 100 | 129 | 1.0 | 4.0 | 0.00 | 0.00 | 0.00 | 39 | 1011.4 |
| 20260904220011 | 99 | 131 | 1.0 | 4.0 | 0.00 | 0.00 | 0.00 | 41 | 1011.4 |
| 20260904215504 | 98 | 98 | 0.0 | 6.0 | 0.00 | 0.00 | 0.00 | 41 | 1011.4 |
| 20260904215004 | 98 | 146 | 1.0 | 6.0 | 0.00 | 0.00 | 0.00 | 41 | 1011.4 |
| 20260904214509 | 99 | 144 | 1.0 | 8.0 | 0.00 | 0.00 | 0.00 | 41 | 1011.5 |
| 20260904214004 | 99 | 111 | 2.0 | 9.0 | 0.00 | 0.00 | 0.00 | 40 | 1011.5 |
| 20260904213504 | 100 | 138 | 2.0 | 7.0 | 0.00 | 0.00 | 0.00 | 40 | 1011.6 |
| 20260904212504 | 99 | 196 | 2.0 | 8.0 | 0.00 | 0.00 | 0.00 | 40 | 1011.7 |
| 20260904212004 | 99 | 125 | 3.0 | 8.0 | 0.00 | 0.00 | 0.00 | 41 | 1011.7 |
| 20260904211510 | 99 | 114 | 2.0 | 8.0 | 0.00 | 0.00 | 0.00 | 41 | 1011.8 |
| 20260904211004 | 99 | 136 | 2.0 | 10.0 | 0.00 | 0.00 | 0.00 | 40 | 1011.9 |
| 20260904210503 | 100 | 111 | 1.0 | 10.0 | 0.00 | 0.00 | 0.00 | 40 | 1011.9 |
| 20260904205504 | 100 | 130 | 2.0 | 9.0 | 0.00 | 0.00 | 0.00 | 41 | 1012.0 |
| 20260904205004 | 100 | 119 | 2.0 | 8.0 | 0.00 | 0.00 | 0.00 | 41 | 1012.1 |
| 20260904204509 | 100 | 124 | 0.0 | 7.0 | 0.00 | 0.00 | 0.00 | 43 | 1012.1 |
| 20260904204004 | 99 | 179 | 1.0 | 10.0 | 0.00 | 0.00 | 0.00 | 42 | 1012.2 |
| 20260904203504 | 99 | 109 | 1.0 | 10.0 | 0.00 | 0.00 | 0.00 | 43 | 1012.2 |
| 20260904203008 | 99 | 105 | 1.0 | 8.0 | 0.00 | 0.00 | 0.00 | 43 | 1012.3 |
| 20260904202504 | 99 | 153 | 3.0 | 9.0 | 0.00 | 0.00 | 0.00 | 44 | 1012.3 |
| 20260904201510 | 98 | 106 | 1.0 | 11.0 | 0.00 | 0.00 | 0.00 | 45 | 1012.5 |
| 20260904201003 | 99 | 132 | 3.0 | 9.0 | 0.00 | 0.00 | 0.00 | 45 | 1012.6 |
| 20260904200504 | 98 | 194 | 1.0 | 10.0 | 0.00 | 0.00 | 0.00 | 45 | 1012.6 |
| 20260904200010 | 98 | 83 | 2.0 | 10.0 | 0.00 | 0.00 | 0.00 | 45 | 1012.7 |
| 20260904195504 | 98 | 110 | 2.0 | 11.0 | 0.00 | 0.00 | 0.00 | 46 | 1012.8 |
| 20260904195004 | 98 | 91 | 1.0 | 10.0 | 0.00 | 0.00 | 0.00 | 47 | 1012.9 |
| 20260904194519 | 97 | 117 | 4.0 | 10.0 | 0.00 | 0.00 | 0.00 | 47 | 1012.9 |
| 20260904194007 | 97 | 110 | 3.0 | 9.0 | 0.00 | 0.00 | 0.00 | 47 | 1013.0 |
| 20260904193504 | 98 | 151 | 2.0 | 11.0 | 0.00 | 0.00 | 0.00 | 47 | 1013.0 |
| 20260904193007 | 98 | 68 | 1.0 | 9.0 | 0.00 | 0.00 | 0.00 | 47 | 1013.1 |
| 20260904192503 | 97 | 124 | 1.0 | 10.0 | 0.00 | 0.00 | 0.00 | 48 | 1013.2 |
| 20260904192004 | 96 | 117 | 1.0 | 10.0 | 0.00 | 0.00 | 0.00 | 48 | 1013.2 |
| 20260904191004 | 97 | 92 | 3.0 | 9.0 | 0.00 | 0.00 | 0.00 | 48 | 1013.3 |
| 20260904190504 | 97 | 75 | 1.0 | 8.0 | 0.00 | 0.00 | 0.00 | 48 | 1013.4 |
| 20260904190008 | 96 | 126 | 2.0 | 10.0 | 0.00 | 0.00 | 0.00 | 48 | 1013.6 |
| 20260904185503 | 96 | 112 | 3.0 | 10.0 | 0.00 | 0.00 | 0.00 | 50 | 1013.6 |
| 20260904185004 | 96 | 129 | 1.0 | 9.0 | 0.00 | 0.00 | 0.00 | 51 | 1013.7 |
| 20260904184509 | 96 | 98 | 4.0 | 10.0 | 0.00 | 0.00 | 0.00 | 49 | 1013.8 |
| 20260904184003 | 95 | 92 | 1.0 | 10.0 | 0.00 | 0.00 | 0.00 | 52 | 1013.7 |
| 20260904183503 | 96 | 355 | 1.0 | 14.0 | 0.00 | 0.00 | 0.00 | 52 | 1013.8 |
| 20260904183007 | 95 | 118 | 1.0 | 14.0 | 0.00 | 0.00 | 0.00 | 52 | 1013.8 |
| 20260904182504 | 95 | 68 | 2.0 | 8.0 | 0.00 | 0.00 | 0.00 | 51 | 1013.9 |
| 20260904182004 | 96 | 143 | 2.0 | 8.0 | 0.00 | 0.00 | 0.00 | 50 | 1013.9 |
| 20260904181508 | 96 | 209 | 1.0 | 9.0 | 0.00 | 0.00 | 0.00 | 50 | 1014.1 |
| 20260904181003 | 95 | 127 | 2.0 | 9.0 | 0.00 | 0.00 | 0.00 | 51 | 1014.1 |
| 20260904180503 | 96 | 146 | 2.0 | 8.0 | 0.00 | 0.00 | 0.00 | 49 | 1014.3 |
| 20260904180012 | 96 | 113 | 0.0 | 6.0 | 0.00 | 0.00 | 0.00 | 52 | 1014.3 |
| 20260904175503 | 95 | 159 | 0.0 | 7.0 | 0.00 | 0.00 | 0.00 | 48 | 1014.3 |
| 20260904174506 | 94 | 173 | 1.0 | 10.0 | 0.00 | 0.00 | 0.00 | 49 | 1014.5 |
| 20260904174003 | 94 | 200 | 3.0 | 10.0 | 0.00 | 0.00 | 0.00 | 49 | 1014.5 |
| 20260904173007 | 93 | 222 | 3.0 | 11.0 | 0.00 | 0.00 | 0.00 | 52 | 1014.6 |
| 20260904172502 | 93 | 137 | 1.0 | 9.0 | 0.00 | 0.00 | 0.00 | 53 | 1014.6 |
| 20260904171003 | 93 | 104 | 2.0 | 10.0 | 0.00 | 0.00 | 0.00 | 52 | 1014.8 |
| 20260904170009 | 92 | 207 | 3.0 | 8.0 | 0.00 | 0.00 | 0.00 | 55 | 1015.0 |
| 20260904165502 | 92 | 140 | 2.0 | 7.0 | 0.00 | 0.00 | 0.00 | 56 | 1015.1 |
| 20260904165003 | 90 | 213 | 1.0 | 7.0 | 0.00 | 0.00 | 0.00 | 57 | 1015.1 |
| 20260904164505 | 90 | 217 | 1.0 | 7.0 | 0.00 | 0.00 | 0.00 | 58 | 1015.0 |
| 20260904164003 | 90 | 202 | 2.0 | 10.0 | 0.00 | 0.00 | 0.00 | 58 | 1015.1 |
| 20260904163502 | 90 | 242 | 4.0 | 14.0 | 0.00 | 0.00 | 0.00 | 57 | 1015.2 |
| 20260904163007 | 90 | 217 | 5.0 | 14.0 | 0.00 | 0.00 | 0.00 | 58 | 1015.2 |
| 20260904162502 | 90 | 132 | 3.0 | 11.0 | 0.00 | 0.00 | 0.00 | 59 | 1015.2 |
| 20260904161506 | 90 | 121 | 1.0 | 8.0 | 0.00 | 0.00 | 0.00 | 59 | 1015.1 |
| 20260904161003 | 89 | 246 | 2.0 | 9.0 | 0.00 | 0.00 | 0.00 | 62 | 1015.2 |
| 20260904160502 | 89 | 199 | 1.0 | 9.0 | 0.00 | 0.00 | 0.00 | 63 | 1015.1 |
| 20260904160009 | 88 | 191 | 2.0 | 11.0 | 0.00 | 0.00 | 0.00 | 63 | 1015.1 |
| 20260904155502 | 88 | 192 | 5.0 | 9.0 | 0.00 | 0.00 | 0.00 | 63 | 1015.0 |
| 20260904155002 | 87 | 214 | 3.0 | 8.0 | 0.00 | 0.00 | 0.00 | 66 | 1015.0 |
| 20260904154505 | 86 | 182 | 2.0 | 8.0 | 0.00 | 0.00 | 0.00 | 66 | 1015.0 |
| 20260904154002 | 87 | 190 | 5.0 | 9.0 | 0.00 | 0.00 | 0.00 | 67 | 1015.0 |
| 20260904153502 | 86 | 210 | 2.0 | 10.0 | 0.00 | 0.00 | 0.00 | 69 | 1015.0 |
| 20260904153006 | 86 | 171 | 4.0 | 11.0 | 0.00 | 0.00 | 0.00 | 69 | 1015.0 |
| 20260904152502 | 85 | 175 | 2.0 | 8.0 | 0.00 | 0.00 | 0.00 | 71 | 1015.1 |
| 20260904151003 | 84 | 180 | 4.0 | 8.0 | 0.00 | 0.00 | 0.00 | 74 | 1015.0 |
| 20260904150008 | 83 | 141 | 1.0 | 8.0 | 0.00 | 0.00 | 0.00 | 76 | 1015.0 |
| 20260904145503 | 83 | 222 | 4.0 | 11.0 | 0.00 | 0.00 | 0.00 | 77 | 1015.0 |
| 20260904145002 | 83 | 152 | 3.0 | 11.0 | 0.00 | 0.00 | 0.00 | 77 | 1015.0 |
| 20260904144507 | 83 | 159 | 1.0 | 4.0 | 0.00 | 0.00 | 0.00 | 78 | 1015.1 |
| 20260904144002 | 83 | 155 | 0.0 | 9.0 | 0.00 | 0.00 | 0.00 | 78 | 1015.0 |
| 20260904143502 | 83 | 211 | 1.0 | 9.0 | 0.00 | 0.00 | 0.00 | 78 | 1015.0 |
| 20260904143005 | 83 | 145 | 2.0 | 8.0 | 0.00 | 0.00 | 0.00 | 78 | 1014.9 |
| 20260904142003 | 83 | 211 | 2.0 | 5.0 | 0.00 | 0.00 | 0.00 | 79 | 1014.8 |
| 20260904141506 | 82 | 117 | 1.0 | 4.0 | 0.00 | 0.00 | 0.00 | 80 | 1014.8 |
| 20260904140503 | 82 | 163 | 1.0 | 5.0 | 0.00 | 0.00 | 0.00 | 80 | 1014.8 |
| 20260904140008 | 82 | 163 | 0.0 | 5.0 | 0.00 | 0.00 | 0.00 | 80 | 1014.8 |
| 20260904135502 | 81 | 163 | 0.0 | 6.0 | 0.00 | 0.00 | 0.00 | 81 | 1014.8 |
| 20260904134505 | 81 | 162 | 0.0 | 5.0 | 0.00 | 0.00 | 0.00 | 81 | 1014.7 |
| 20260904134001 | 81 | 162 | 0.0 | 10.0 | 0.00 | 0.00 | 0.00 | 81 | 1014.7 |
| 20260904133502 | 81 | 160 | 0.0 | 10.0 | 0.00 | 0.00 | 0.00 | 81 | 1014.6 |
| 20260904133004 | 81 | 100 | 0.0 | 4.0 | 0.00 | 0.00 | 0.00 | 81 | 1014.6 |
| 20260904132502 | 81 | 98 | 0.0 | 4.0 | 0.00 | 0.00 | 0.00 | 81 | 1014.6 |
| 20260904132001 | 81 | 103 | 0.0 | 4.0 | 0.00 | 0.00 | 0.00 | 81 | 1014.5 |
| 20260904131505 | 81 | 118 | 0.0 | 4.0 | 0.00 | 0.00 | 0.00 | 81 | 1014.5 |
| 20260904130006 | 81 | 109 | 0.0 | 4.0 | 0.00 | 0.00 | 0.00 | 81 | 1014.3 |
| 20260904125501 | 81 | 97 | 0.0 | 4.0 | 0.00 | 0.00 | 0.00 | 81 | 1014.2 |
| 20260904124505 | 80 | 115 | 1.0 | 4.0 | 0.00 | 0.00 | 0.00 | 82 | 1014.1 |
| 20260904124001 | 80 | 119 | 0.0 | 4.0 | 0.00 | 0.00 | 0.00 | 83 | 1014.0 |
| 20260904123501 | 80 | 119 | 1.0 | 4.0 | 0.00 | 0.00 | 0.00 | 83 | 1014.1 |
| 20260904123005 | 79 | 144 | 0.0 | 4.0 | 0.00 | 0.00 | 0.00 | 84 | 1014.0 |
| 20260904122502 | 79 | 198 | 0.0 | 5.0 | 0.00 | 0.00 | 0.00 | 84 | 1014.0 |
| 20260904122002 | 79 | 198 | 0.0 | 5.0 | 0.00 | 0.00 | 0.00 | 84 | 1013.9 |
| 20260904121505 | 79 | 198 | 0.0 | 2.0 | 0.00 | 0.00 | 0.00 | 84 | 1013.8 |
| 20260904121001 | 80 | 198 | 0.0 | 2.0 | 0.00 | 0.00 | 0.00 | 84 | 1013.8 |
| 20260904120502 | 80 | 198 | 0.0 | 2.0 | 0.00 | 0.00 | 0.00 | 83 | 1013.9 |
| 20260904114505 | 80 | 198 | 0.0 | 3.0 | 0.00 | 0.00 | 0.00 | 82 | 1013.7 |
| 20260904114002 | 80 | 198 | 0.0 | 5.0 | 0.00 | 0.00 | 0.00 | 82 | 1013.7 |
| 20260904113502 | 80 | 198 | 0.0 | 4.0 | 0.00 | 0.00 | 0.00 | 82 | 1013.7 |
| 20260904113005 | 80 | 194 | 0.0 | 2.0 | 0.00 | 0.00 | 0.00 | 82 | 1013.7 |
| 20260904112501 | 80 | 194 | 0.0 | 5.0 | 0.00 | 0.00 | 0.00 | 82 | 1013.7 |
| 20260904112001 | 80 | 194 | 0.0 | 5.0 | 0.00 | 0.00 | 0.00 | 82 | 1013.6 |
| 20260904111506 | 80 | 209 | 0.0 | 4.0 | 0.00 | 0.00 | 0.00 | 82 | 1013.6 |
| 20260904111001 | 80 | 209 | 0.0 | 4.0 | 0.00 | 0.00 | 0.00 | 82 | 1013.6 |
| 20260904110502 | 80 | 209 | 1.0 | 4.0 | 0.00 | 0.00 | 0.00 | 82 | 1013.7 |
| 20260904110006 | 80 | 209 | 1.0 | 4.0 | 0.00 | 0.00 | 0.00 | 82 | 1013.7 |
| 20260904105501 | 80 | 208 | 0.0 | 5.0 | 0.00 | 0.00 | 0.00 | 82 | 1013.6 |
| 20260904105001 | 80 | 194 | 1.0 | 4.0 | 0.00 | 0.00 | 0.00 | 82 | 1013.6 |
| 20260904104504 | 80 | 186 | 0.0 | 4.0 | 0.00 | 0.00 | 0.00 | 82 | 1013.5 |
| 20260904104001 | 80 | 186 | 1.0 | 3.0 | 0.00 | 0.00 | 0.00 | 82 | 1013.5 |
| 20260904103501 | 80 | 186 | 0.0 | 3.0 | 0.00 | 0.00 | 0.00 | 81 | 1013.5 |
| 20260904102500 | 80 | 186 | 0.0 | 5.0 | 0.00 | 0.00 | 0.00 | 81 | 1013.5 |
| 20260904102001 | 80 | 186 | 0.0 | 5.0 | 0.00 | 0.00 | 0.00 | 81 | 1013.4 |
| 20260904101000 | 80 | 200 | 0.0 | 5.0 | 0.00 | 0.00 | 0.00 | 81 | 1013.4 |
| 20260904095501 | 80 | 217 | 1.0 | 4.0 | 0.00 | 0.00 | 0.00 | 81 | 1013.3 |
| 20260904095001 | 80 | 217 | 0.0 | 4.0 | 0.00 | 0.00 | 0.00 | 81 | 1013.3 |
| 20260904094505 | 80 | 217 | 0.0 | 2.0 | 0.00 | 0.00 | 0.00 | 81 | 1013.3 |
| 20260904094001 | 80 | 217 | 0.0 | 5.0 | 0.00 | 0.00 | 0.00 | 81 | 1013.3 |
| 20260904093501 | 80 | 217 | 1.0 | 5.0 | 0.00 | 0.00 | 0.00 | 81 | 1013.3 |
| 20260904092500 | 80 | 216 | 1.0 | 7.0 | 0.00 | 0.00 | 0.00 | 81 | 1013.3 |
| 20260904092006 | 80 | 172 | 1.0 | 5.0 | 0.00 | 0.00 | 0.00 | 80 | 1013.3 |
| 20260904091504 | 80 | 171 | 1.0 | 4.0 | 0.00 | 0.00 | 0.00 | 80 | 1013.3 |
| 20260904091000 | 80 | 171 | 0.0 | 2.0 | 0.00 | 0.00 | 0.00 | 80 | 1013.3 |
| 20260904090501 | 80 | 171 | 0.0 | 6.0 | 0.00 | 0.00 | 0.00 | 80 | 1013.3 |
| 20260904085501 | 80 | 171 | 0.0 | 3.0 | 0.00 | 0.00 | 0.00 | 80 | 1013.3 |
| 20260904085000 | 80 | 171 | 0.0 | 4.0 | 0.00 | 0.00 | 0.00 | 79 | 1013.3 |
| 20260904084504 | 80 | 171 | 0.0 | 4.0 | 0.00 | 0.00 | 0.00 | 79 | 1013.3 |
| 20260904084000 | 80 | 171 | 1.0 | 4.0 | 0.00 | 0.00 | 0.00 | 79 | 1013.3 |
| 20260904083004 | 80 | 171 | 0.0 | 5.0 | 0.00 | 0.00 | 0.00 | 79 | 1013.2 |
| 20260904082500 | 80 | 167 | 1.0 | 6.0 | 0.00 | 0.00 | 0.00 | 79 | 1013.2 |
| 20260904082002 | 81 | 167 | 1.0 | 6.0 | 0.00 | 0.00 | 0.00 | 78 | 1013.2 |
| 20260904081505 | 81 | 164 | 0.0 | 3.0 | 0.00 | 0.00 | 0.00 | 78 | 1013.3 |
| 20260904080501 | 81 | 164 | 0.0 | 3.0 | 0.00 | 0.00 | 0.00 | 78 | 1013.3 |
| 20260904080006 | 81 | 165 | 0.0 | 7.0 | 0.00 | 0.00 | 0.00 | 78 | 1013.2 |
| 20260904075501 | 80 | 202 | 1.0 | 7.0 | 0.00 | 0.00 | 0.00 | 78 | 1013.0 |
| 20260904075001 | 81 | 120 | 2.0 | 6.0 | 0.00 | 0.00 | 0.00 | 77 | 1013.1 |
| 20260904074504 | 81 | 119 | 1.0 | 6.0 | 0.00 | 0.00 | 0.00 | 77 | 1013.2 |
| 20260904073500 | 81 | 142 | 0.0 | 3.0 | 0.00 | 0.00 | 0.00 | 77 | 1013.3 |
| 20260904073004 | 81 | 142 | 0.0 | 5.0 | 0.00 | 0.00 | 0.00 | 76 | 1013.3 |
| 20260904072501 | 81 | 142 | 1.0 | 5.0 | 0.00 | 0.00 | 0.00 | 76 | 1013.2 |
| 20260904072000 | 81 | 145 | 0.0 | 4.0 | 0.00 | 0.00 | 0.00 | 76 | 1013.3 |
| 20260904071002 | 81 | 145 | 2.0 | 7.0 | 0.00 | 0.00 | 0.00 | 75 | 1013.4 |
| 20260904070006 | 81 | 165 | 1.0 | 8.0 | 0.00 | 0.00 | 0.00 | 75 | 1013.4 |
| 20260904065500 | 81 | 159 | 3.0 | 8.0 | 0.00 | 0.00 | 0.00 | 75 | 1013.4 |
| 20260904064959 | 81 | 179 | 2.0 | 7.0 | 0.00 | 0.00 | 0.00 | 74 | 1013.4 |
| 20260904064503 | 81 | 177 | 1.0 | 6.0 | 0.00 | 0.00 | 0.00 | 74 | 1013.5 |
| 20260904063459 | 81 | 234 | 3.0 | 8.0 | 0.00 | 0.00 | 0.00 | 73 | 1013.5 |
| 20260904063003 | 81 | 164 | 1.0 | 6.0 | 0.00 | 0.00 | 0.00 | 72 | 1013.5 |
| 20260904062501 | 81 | 164 | 1.0 | 6.0 | 0.00 | 0.00 | 0.00 | 72 | 1013.6 |
| 20260904061959 | 81 | 162 | 0.0 | 6.0 | 0.00 | 0.00 | 0.00 | 71 | 1013.5 |
| 20260904061505 | 81 | 161 | 1.0 | 6.0 | 0.00 | 0.00 | 0.00 | 71 | 1013.6 |
| 20260904061000 | 81 | 153 | 0.0 | 8.0 | 0.00 | 0.00 | 0.00 | 70 | 1013.7 |
| 20260904060459 | 81 | 153 | 2.0 | 8.0 | 0.00 | 0.00 | 0.00 | 70 | 1013.7 |
| 20260904060011 | 81 | 103 | 1.0 | 5.0 | 0.00 | 0.00 | 0.00 | 70 | 1013.6 |
| 20260904055505 | 81 | 128 | 0.0 | 4.0 | 0.00 | 0.00 | 0.00 | 69 | 1013.7 |
| 20260904055005 | 82 | 128 | 1.0 | 4.0 | 0.00 | 0.00 | 0.00 | 69 | 1013.7 |
| 20260904054509 | 82 | 126 | 0.0 | 4.0 | 0.00 | 0.00 | 0.00 | 68 | 1013.7 |
| 20260904054006 | 82 | 126 | 0.0 | 6.0 | 0.00 | 0.00 | 0.00 | 68 | 1013.6 |
| 20260904053505 | 82 | 153 | 2.0 | 7.0 | 0.00 | 0.00 | 0.00 | 67 | 1013.6 |
| 20260904053008 | 82 | 145 | 2.0 | 7.0 | 0.00 | 0.00 | 0.00 | 67 | 1013.6 |
| 20260904051005 | 82 | 134 | 0.0 | 5.0 | 0.00 | 0.00 | 0.00 | 66 | 1013.3 |
| 20260904050505 | 83 | 134 | 1.0 | 5.0 | 0.00 | 0.00 | 0.00 | 66 | 1013.4 |
| 20260904050013 | 83 | 134 | 1.0 | 7.0 | 0.00 | 0.00 | 0.00 | 65 | 1013.3 |
| 20260904045505 | 83 | 134 | 1.0 | 7.0 | 0.00 | 0.00 | 0.00 | 65 | 1013.3 |
| 20260904045008 | 83 | 146 | 1.0 | 4.0 | 0.00 | 0.00 | 0.00 | 65 | 1013.3 |
| 20260904044509 | 83 | 152 | 1.0 | 9.0 | 0.00 | 0.00 | 0.00 | 65 | 1013.3 |
| 20260904044005 | 83 | 207 | 3.0 | 9.0 | 0.00 | 0.00 | 0.00 | 65 | 1013.3 |
| 20260904043505 | 83 | 138 | 0.0 | 5.0 | 0.00 | 0.00 | 0.00 | 66 | 1013.4 |
| 20260904043009 | 83 | 137 | 1.0 | 5.0 | 0.00 | 0.00 | 0.00 | 65 | 1013.4 |
| 20260904042505 | 83 | 136 | 0.0 | 5.0 | 0.00 | 0.00 | 0.00 | 64 | 1013.3 |
| 20260904042005 | 84 | 135 | 0.0 | 6.0 | 0.00 | 0.00 | 0.00 | 64 | 1013.4 |
| 20260904041509 | 84 | 107 | 1.0 | 9.0 | 0.00 | 0.00 | 0.00 | 63 | 1013.3 |
| 20260904041006 | 84 | 132 | 2.0 | 9.0 | 0.00 | 0.00 | 0.00 | 63 | 1013.3 |
| 20260904040505 | 84 | 101 | 1.0 | 6.0 | 0.00 | 0.00 | 0.00 | 63 | 1013.3 |
| 20260904040011 | 84 | 124 | 2.0 | 7.0 | 0.00 | 0.00 | 0.00 | 62 | 1013.3 |
| 20260904035505 | 84 | 138 | 1.0 | 8.0 | 0.00 | 0.00 | 0.00 | 63 | 1013.4 |
| 20260904035005 | 84 | 151 | 2.0 | 10.0 | 0.00 | 0.00 | 0.00 | 62 | 1013.3 |
| 20260904034509 | 84 | 207 | 2.0 | 10.0 | 0.00 | 0.00 | 0.00 | 63 | 1013.3 |
| 20260904033506 | 84 | 161 | 2.0 | 10.0 | 0.00 | 0.00 | 0.00 | 63 | 1013.4 |
| 20260904033009 | 84 | 194 | 3.0 | 7.0 | 0.00 | 0.00 | 0.00 | 65 | 1013.5 |
| 20260904032505 | 84 | 115 | 0.0 | 8.0 | 0.00 | 0.00 | 0.00 | 66 | 1013.5 |
| 20260904032004 | 84 | 132 | 1.0 | 8.0 | 0.00 | 0.00 | 0.00 | 66 | 1013.4 |
| 20260904031006 | 84 | 134 | 2.0 | 10.0 | 0.00 | 0.00 | 0.00 | 65 | 1013.3 |
| 20260904030505 | 84 | 130 | 1.0 | 8.0 | 0.00 | 0.00 | 0.00 | 65 | 1013.3 |
| 20260904030012 | 85 | 133 | 1.0 | 10.0 | 0.00 | 0.00 | 0.00 | 65 | 1013.3 |
| 20260904025506 | 85 | 186 | 2.0 | 10.0 | 0.00 | 0.00 | 0.00 | 65 | 1013.3 |
| 20260904025005 | 85 | 132 | 1.0 | 8.0 | 0.00 | 0.00 | 0.00 | 65 | 1013.2 |
| 20260904024508 | 85 | 134 | 2.0 | 8.0 | 0.00 | 0.00 | 0.00 | 65 | 1012.9 |
| 20260904023505 | 85 | 160 | 1.0 | 7.0 | 0.00 | 0.00 | 0.00 | 65 | 1012.9 |
| 20260904023009 | 85 | 160 | 1.0 | 8.0 | 0.00 | 0.00 | 0.00 | 65 | 1012.8 |
| 20260904022506 | 85 | 154 | 1.0 | 8.0 | 0.00 | 0.00 | 0.00 | 65 | 1012.7 |
| 20260904021508 | 85 | 128 | 1.0 | 8.0 | 0.00 | 0.00 | 0.00 | 65 | 1012.6 |
| 20260904021006 | 85 | 163 | 0.0 | 11.0 | 0.00 | 0.00 | 0.00 | 65 | 1012.5 |
| 20260904020505 | 86 | 136 | 1.0 | 8.0 | 0.00 | 0.00 | 0.00 | 65 | 1012.4 |
| 20260904020011 | 86 | 112 | 2.0 | 9.0 | 0.00 | 0.00 | 0.00 | 64 | 1012.3 |
| 20260904015505 | 86 | 93 | 3.0 | 8.0 | 0.00 | 0.00 | 0.00 | 63 | 1012.2 |
| 20260904015004 | 86 | 116 | 1.0 | 11.0 | 0.00 | 0.00 | 0.00 | 62 | 1012.1 |
| 20260904014507 | 87 | 155 | 2.0 | 11.0 | 0.00 | 0.00 | 0.00 | 62 | 1012.1 |
| 20260904014005 | 87 | 126 | 1.0 | 9.0 | 0.00 | 0.00 | 0.00 | 61 | 1012.0 |
| 20260904013008 | 87 | 96 | 1.0 | 11.0 | 0.00 | 0.00 | 0.00 | 61 | 1011.8 |
| 20260904012504 | 87 | 141 | 1.0 | 10.0 | 0.00 | 0.00 | 0.00 | 61 | 1011.8 |
| 20260904012004 | 87 | 109 | 1.0 | 10.0 | 0.00 | 0.00 | 0.00 | 60 | 1011.7 |
| 20260904011508 | 88 | 133 | 1.0 | 7.0 | 0.00 | 0.00 | 0.00 | 60 | 1011.7 |